iso_date,epoch_date,Year,Hour,Min,DOY,POS_DOY,Lat,Lon,BP,Ts,Ta,has_bp,has_ts,has_ta,BuoyID,Buoy_Type,Buoy_Owner,Logistics,Hemisphere
2016-01-15T10:59:31Z,1452855571,2016,11,0,15.458,15.458,-76.5441,-46.95993,-999.00,-999.00,-999.0,no,no,no,300234062422050,IMB,AWI-USIABP,unknown,South
2016-01-15T16:59:31Z,1452877171,2016,17,0,15.708,15.708,-76.59338,-46.9674,-999.00,-999.00,-999.0,no,no,no,300234062422050,IMB,AWI-USIABP,unknown,South
2016-01-15T22:59:31Z,1452898771,2016,23,0,15.958,15.958,-76.54233,-47.1775,-999.00,-999.00,-999.0,no,no,no,300234062422050,IMB,AWI-USIABP,unknown,South
2016-01-16T04:59:31Z,1452920371,2016,5,0,16.208,16.208,-76.5441,-46.95993,-999.00,-999.00,-999.0,no,no,no,300234062422050,IMB,AWI-USIABP,unknown,South
2016-01-16T10:59:31Z,1452941971,2016,11,0,16.458,16.458,-76.46098,-47.057,-999.00,-999.00,-999.0,no,no,no,300234062422050,IMB,AWI-USIABP,unknown,South
2016-01-16T16:59:31Z,1452963571,2016,17,0,16.708,16.708,-76.48648,-46.95251,-999.00,-999.00,-999.0,no,no,no,300234062422050,IMB,AWI-USIABP,unknown,South
2016-01-16T22:59:31Z,1452985171,2016,23,0,16.958,16.958,-76.54233,-47.1775,-999.00,-999.00,-999.0,no,no,no,300234062422050,IMB,AWI-USIABP,unknown,South
2016-01-17T04:59:31Z,1453006771,2016,5,0,17.208,17.208,-76.50838,-47.28193,-999.00,-999.00,-999.0,no,no,no,300234062422050,IMB,AWI-USIABP,unknown,South
2016-01-17T10:59:31Z,1453028371,2016,11,0,17.458,17.458,-76.51861,-47.0648,-999.00,-999.00,-999.0,no,no,no,300234062422050,IMB,AWI-USIABP,unknown,South
2016-01-17T16:59:31Z,1453049971,2016,17,0,17.708,17.708,-76.50838,-47.28193,-999.00,-999.00,-999.0,no,no,no,300234062422050,IMB,AWI-USIABP,unknown,South
2016-01-17T22:59:31Z,1453071571,2016,23,0,17.958,17.958,-76.50838,-47.28193,-999.00,-999.00,-999.0,no,no,no,300234062422050,IMB,AWI-USIABP,unknown,South
2016-01-18T04:59:31Z,1453093171,2016,5,0,18.208,18.208,-76.56787,-47.07266,-999.00,-999.00,-999.0,no,no,no,300234062422050,IMB,AWI-USIABP,unknown,South
2016-01-18T10:59:31Z,1453114771,2016,11,0,18.458,18.458,-76.45912,-47.27331,-999.00,-999.00,-999.0,no,no,no,300234062422050,IMB,AWI-USIABP,unknown,South
2016-01-18T16:59:31Z,1453136371,2016,17,0,18.708,18.708,-76.51861,-47.0648,-999.00,-999.00,-999.0,no,no,no,300234062422050,IMB,AWI-USIABP,unknown,South
2016-01-18T22:59:31Z,1453157971,2016,23,0,18.958,18.958,-76.50838,-47.28193,-999.00,-999.00,-999.0,no,no,no,300234062422050,IMB,AWI-USIABP,unknown,South
2016-01-19T10:59:31Z,1453201171,2016,11,0,19.458,19.458,-76.46098,-47.057,-999.00,-999.00,-999.0,no,no,no,300234062422050,IMB,AWI-USIABP,unknown,South
2016-01-19T16:59:31Z,1453222771,2016,17,0,19.708,19.708,-76.43545,-47.16108,-999.00,-999.00,-999.0,no,no,no,300234062422050,IMB,AWI-USIABP,unknown,South
2016-01-19T22:59:31Z,1453244371,2016,23,0,19.958,19.958,-76.50838,-47.28193,-999.00,-999.00,-999.0,no,no,no,300234062422050,IMB,AWI-USIABP,unknown,South
2016-01-20T04:59:31Z,1453265971,2016,5,0,20.208,20.208,-76.43722,-46.94515,-999.00,-999.00,-999.0,no,no,no,300234062422050,IMB,AWI-USIABP,unknown,South
2016-01-20T10:59:31Z,1453287571,2016,11,0,20.458,20.458,-76.43545,-47.16108,-999.00,-999.00,-999.0,no,no,no,300234062422050,IMB,AWI-USIABP,unknown,South
2016-01-20T16:59:31Z,1453309171,2016,17,0,20.708,20.708,-76.04964,-38.35777,-999.00,-999.00,-999.0,no,no,no,300234062422050,IMB,AWI-USIABP,unknown,South
2016-01-20T22:59:31Z,1453330771,2016,23,0,20.958,20.958,-76.38798,-46.93784,-999.00,-999.00,-999.0,no,no,no,300234062422050,IMB,AWI-USIABP,unknown,South
2016-01-21T04:59:31Z,1453352371,2016,5,0,21.208,21.208,-76.41341,-46.8337,-999.00,-999.00,-999.0,no,no,no,300234062422050,IMB,AWI-USIABP,unknown,South
2016-01-21T10:59:31Z,1453373971,2016,11,0,21.458,21.458,-76.33029,-46.93059,-999.00,-999.00,-999.0,no,no,no,300234062422050,IMB,AWI-USIABP,unknown,South
2016-01-21T16:59:31Z,1453395571,2016,17,0,21.708,21.708,-76.41489,-46.61809,-999.00,-999.00,-999.0,no,no,no,300234062422050,IMB,AWI-USIABP,unknown,South
2016-01-21T22:59:31Z,1453417171,2016,23,0,21.958,21.958,-76.38798,-46.93784,-999.00,-999.00,-999.0,no,no,no,300234062422050,IMB,AWI-USIABP,unknown,South
2016-01-22T04:59:31Z,1453438771,2016,5,0,22.208,22.208,-76.33186,-46.71621,-999.00,-999.00,-999.0,no,no,no,300234062422050,IMB,AWI-USIABP,unknown,South
2016-01-22T10:59:31Z,1453460371,2016,11,0,22.458,22.458,-76.30795,-46.606,-999.00,-999.00,-999.0,no,no,no,300234062422050,IMB,AWI-USIABP,unknown,South
2016-01-22T16:59:31Z,1453481971,2016,17,0,22.708,22.708,-76.3572,-46.61203,-999.00,-999.00,-999.0,no,no,no,300234062422050,IMB,AWI-USIABP,unknown,South
2016-01-22T22:59:31Z,1453503571,2016,23,0,22.958,22.958,-76.3572,-46.61203,-999.00,-999.00,-999.0,no,no,no,300234062422050,IMB,AWI-USIABP,unknown,South
2016-01-23T04:59:31Z,1453525171,2016,5,0,23.208,23.208,-76.35849,-46.39718,-999.00,-999.00,-999.0,no,no,no,300234062422050,IMB,AWI-USIABP,unknown,South
2016-01-23T10:59:31Z,1453546771,2016,11,0,23.458,23.458,-76.33444,-46.28733,-999.00,-999.00,-999.0,no,no,no,300234062422050,IMB,AWI-USIABP,unknown,South
2016-01-23T16:59:31Z,1453568371,2016,17,0,23.708,23.708,-76.14484,-42.5656,-999.00,-999.00,-999.0,no,no,no,300234062422050,IMB,AWI-USIABP,unknown,South
2016-01-23T22:59:31Z,1453589971,2016,23,0,23.958,23.958,-76.30924,-46.39196,-999.00,-999.00,-999.0,no,no,no,300234062422050,IMB,AWI-USIABP,unknown,South
2016-01-24T04:59:31Z,1453611571,2016,5,0,24.208,24.208,-76.31034,-46.17788,-999.00,-999.00,-999.0,no,no,no,300234062422050,IMB,AWI-USIABP,unknown,South
2016-01-24T10:59:31Z,1453633171,2016,11,0,24.458,24.458,-76.2862,-46.06883,-999.00,-999.00,-999.0,no,no,no,300234062422050,IMB,AWI-USIABP,unknown,South
2016-01-24T16:59:31Z,1453654771,2016,17,0,24.708,24.708,-76.2862,-46.06883,-999.00,-999.00,-999.0,no,no,no,300234062422050,IMB,AWI-USIABP,unknown,South
2016-01-24T22:59:31Z,1453676371,2016,23,0,24.958,24.958,-76.284,-46.49619,-999.00,-999.00,-999.0,no,no,no,300234062422050,IMB,AWI-USIABP,unknown,South
2016-01-25T04:59:31Z,1453697971,2016,5,0,25.208,25.208,-76.2611,-46.17349,-999.00,-999.00,-999.0,no,no,no,300234062422050,IMB,AWI-USIABP,unknown,South
2016-01-25T10:59:31Z,1453719571,2016,11,0,25.458,25.458,-76.2378,-45.85192,-999.00,-999.00,-999.0,no,no,no,300234062422050,IMB,AWI-USIABP,unknown,South
2016-01-25T16:59:31Z,1453741171,2016,17,0,25.708,25.708,-76.2378,-45.85192,-999.00,-999.00,-999.0,no,no,no,300234062422050,IMB,AWI-USIABP,unknown,South
2016-01-25T22:59:31Z,1453762771,2016,23,0,25.958,25.958,-76.26202,-45.96017,-999.00,-999.00,-999.0,no,no,no,300234062422050,IMB,AWI-USIABP,unknown,South
2016-01-26T04:59:31Z,1453784371,2016,5,0,26.208,26.208,-76.26275,-45.74683,-999.00,-999.00,-999.0,no,no,no,300234062422050,IMB,AWI-USIABP,unknown,South
2016-01-26T10:59:31Z,1453805971,2016,11,0,26.458,26.458,-76.23844,-45.63896,-999.00,-999.00,-999.0,no,no,no,300234062422050,IMB,AWI-USIABP,unknown,South
2016-01-26T16:59:31Z,1453827571,2016,17,0,26.708,26.708,-76.2334,-46.70346,-999.00,-999.00,-999.0,no,no,no,300234062422050,IMB,AWI-USIABP,unknown,South
2016-01-27T04:59:31Z,1453870771,2016,5,0,27.208,27.208,-76.2059,-45.3189,-999.00,-999.00,-999.0,no,no,no,300234062422050,IMB,AWI-USIABP,unknown,South
2016-01-27T10:59:31Z,1453892371,2016,11,0,27.458,27.458,-76.15666,-45.31772,-999.00,-999.00,-999.0,no,no,no,300234062422050,IMB,AWI-USIABP,unknown,South
2016-01-27T16:59:31Z,1453913971,2016,17,0,27.708,27.708,-76.40962,-50.07722,-999.00,-999.00,-999.0,no,no,no,300234062422050,IMB,AWI-USIABP,unknown,South
2016-01-27T22:59:31Z,1453935571,2016,23,0,27.958,27.958,-76.18139,-45.21221,-999.00,-999.00,-999.0,no,no,no,300234062422050,IMB,AWI-USIABP,unknown,South
2016-01-28T04:59:31Z,1453957171,2016,5,0,28.208,28.208,-76.13189,-45.42284,-999.00,-999.00,-999.0,no,no,no,300234062422050,IMB,AWI-USIABP,unknown,South
2016-01-28T10:59:31Z,1453978771,2016,11,0,28.458,28.458,-76.13216,-45.21142,-999.00,-999.00,-999.0,no,no,no,300234062422050,IMB,AWI-USIABP,unknown,South
2016-01-28T16:59:31Z,1454000371,2016,17,0,28.708,28.708,-76.13216,-45.21142,-999.00,-999.00,-999.0,no,no,no,300234062422050,IMB,AWI-USIABP,unknown,South
2016-01-28T22:59:31Z,1454021971,2016,23,0,28.958,28.958,-76.15666,-45.31772,-999.00,-999.00,-999.0,no,no,no,300234062422050,IMB,AWI-USIABP,unknown,South
2016-01-29T04:59:31Z,1454043571,2016,5,0,29.208,29.208,-76.2059,-44.6811,-999.00,-999.00,-999.0,no,no,no,300234062422050,IMB,AWI-USIABP,unknown,South
2016-01-29T10:59:31Z,1454065171,2016,11,0,29.458,29.458,-76.15684,-45.10591,-999.00,-999.00,-999.0,no,no,no,300234062422050,IMB,AWI-USIABP,unknown,South
2016-01-29T16:59:31Z,1454086771,2016,17,0,29.708,29.708,-76.5292,-50.66729,-999.00,-999.00,-999.0,no,no,no,300234062422050,IMB,AWI-USIABP,unknown,South
2016-01-29T22:59:31Z,1454108371,2016,23,0,29.958,29.958,-76.10763,-45.10552,-999.00,-999.00,-999.0,no,no,no,300234062422050,IMB,AWI-USIABP,unknown,South
2016-01-30T04:59:31Z,1454129971,2016,5,0,30.208,30.208,-76.18148,-45.0,-999.00,-999.00,-999.0,no,no,no,300234062422050,IMB,AWI-USIABP,unknown,South
2016-01-30T10:59:31Z,1454151571,2016,11,0,30.458,30.458,-76.10763,-44.89448,-999.00,-999.00,-999.0,no,no,no,300234062422050,IMB,AWI-USIABP,unknown,South
2016-01-30T16:59:31Z,1454173171,2016,17,0,30.708,30.708,-76.18139,-44.78779,-999.00,-999.00,-999.0,no,no,no,300234062422050,IMB,AWI-USIABP,unknown,South
2016-01-30T22:59:31Z,1454194771,2016,23,0,30.958,30.958,-76.15684,-44.89409,-999.00,-999.00,-999.0,no,no,no,300234062422050,IMB,AWI-USIABP,unknown,South
2016-01-31T04:59:31Z,1454216371,2016,5,0,31.208,31.208,-76.15684,-44.89409,-999.00,-999.00,-999.0,no,no,no,300234062422050,IMB,AWI-USIABP,unknown,South
2016-01-31T10:59:31Z,1454237971,2016,11,0,31.458,31.458,-76.13216,-44.78858,-999.00,-999.00,-999.0,no,no,no,300234062422050,IMB,AWI-USIABP,unknown,South
2016-01-31T16:59:31Z,1454259571,2016,17,0,31.708,31.708,-76.18139,-44.78779,-999.00,-999.00,-999.0,no,no,no,300234062422050,IMB,AWI-USIABP,unknown,South
2016-01-31T22:59:31Z,1454281171,2016,23,0,31.958,31.958,-76.15684,-44.89409,-999.00,-999.00,-999.0,no,no,no,300234062422050,IMB,AWI-USIABP,unknown,South
2016-02-01T04:59:31Z,1454302771,2016,5,0,32.208,32.208,-76.18139,-44.78779,-999.00,-999.00,-999.0,no,no,no,300234062422050,IMB,AWI-USIABP,unknown,South
2016-02-01T10:59:31Z,1454324371,2016,11,0,32.458,32.458,-76.2059,-44.6811,-999.00,-999.00,-999.0,no,no,no,300234062422050,IMB,AWI-USIABP,unknown,South
2016-02-01T16:59:31Z,1454345971,2016,17,0,32.708,32.708,-76.13216,-44.78858,-999.00,-999.00,-999.0,no,no,no,300234062422050,IMB,AWI-USIABP,unknown,South
2016-02-01T22:59:31Z,1454367571,2016,23,0,32.958,32.958,-76.18139,-44.78779,-999.00,-999.00,-999.0,no,no,no,300234062422050,IMB,AWI-USIABP,unknown,South
2016-02-02T04:59:31Z,1454389171,2016,5,0,33.208,33.208,-76.18112,-44.57559,-999.00,-999.00,-999.0,no,no,no,300234062422050,IMB,AWI-USIABP,unknown,South
2016-02-02T10:59:31Z,1454410771,2016,11,0,33.458,33.458,-76.1563,-44.47048,-999.00,-999.00,-999.0,no,no,no,300234062422050,IMB,AWI-USIABP,unknown,South
2016-02-02T16:59:31Z,1454432371,2016,17,0,33.708,33.708,-76.13189,-44.57716,-999.00,-999.00,-999.0,no,no,no,300234062422050,IMB,AWI-USIABP,unknown,South
2016-02-02T22:59:31Z,1454453971,2016,23,0,33.958,33.958,-76.13189,-44.57716,-999.00,-999.00,-999.0,no,no,no,300234062422050,IMB,AWI-USIABP,unknown,South
2016-02-03T04:59:31Z,1454475571,2016,5,0,34.208,34.208,-76.08269,-44.57872,-999.00,-999.00,-999.0,no,no,no,300234062422050,IMB,AWI-USIABP,unknown,South
2016-02-03T10:59:31Z,1454497171,2016,11,0,34.458,34.458,-76.02485,-44.58026,-999.00,-999.00,-999.0,no,no,no,300234062422050,IMB,AWI-USIABP,unknown,South
2016-02-03T16:59:31Z,1454518771,2016,17,0,34.708,34.708,-76.08269,-44.57872,-999.00,-999.00,-999.0,no,no,no,300234062422050,IMB,AWI-USIABP,unknown,South
2016-02-03T22:59:31Z,1454540371,2016,23,0,34.958,34.958,-76.10745,-44.68345,-999.00,-999.00,-999.0,no,no,no,300234062422050,IMB,AWI-USIABP,unknown,South
2016-02-04T04:59:31Z,1454561971,2016,5,0,35.208,35.208,-76.10708,-44.47243,-999.00,-999.00,-999.0,no,no,no,300234062422050,IMB,AWI-USIABP,unknown,South
2016-02-04T10:59:31Z,1454583571,2016,11,0,35.458,35.458,-76.08269,-44.57872,-999.00,-999.00,-999.0,no,no,no,300234062422050,IMB,AWI-USIABP,unknown,South
2016-02-04T16:59:31Z,1454605171,2016,17,0,35.708,35.708,-76.08269,-44.57872,-999.00,-999.00,-999.0,no,no,no,300234062422050,IMB,AWI-USIABP,unknown,South
2016-02-04T22:59:31Z,1454626771,2016,23,0,35.958,35.958,-76.15684,-44.89409,-999.00,-999.00,-999.0,no,no,no,300234062422050,IMB,AWI-USIABP,unknown,South
2016-02-05T04:59:31Z,1454648371,2016,5,0,36.208,36.208,-76.10745,-44.68345,-999.00,-999.00,-999.0,no,no,no,300234062422050,IMB,AWI-USIABP,unknown,South
2016-02-05T10:59:31Z,1454669971,2016,11,0,36.458,36.458,-76.10763,-44.89448,-999.00,-999.00,-999.0,no,no,no,300234062422050,IMB,AWI-USIABP,unknown,South
2016-02-05T16:59:31Z,1454691571,2016,17,0,36.708,36.708,-76.10763,-44.89448,-999.00,-999.00,-999.0,no,no,no,300234062422050,IMB,AWI-USIABP,unknown,South
2016-02-05T22:59:31Z,1454713171,2016,23,0,36.958,36.958,-76.18139,-44.78779,-999.00,-999.00,-999.0,no,no,no,300234062422050,IMB,AWI-USIABP,unknown,South
2016-02-06T04:59:31Z,1454734771,2016,5,0,37.208,37.208,-76.23889,-44.57402,-999.00,-999.00,-999.0,no,no,no,300234062422050,IMB,AWI-USIABP,unknown,South
2016-02-06T10:59:31Z,1454756371,2016,11,0,37.458,37.458,-76.18139,-44.78779,-999.00,-999.00,-999.0,no,no,no,300234062422050,IMB,AWI-USIABP,unknown,South
2016-02-06T16:59:31Z,1454777971,2016,17,0,37.708,37.708,-76.15666,-44.68228,-999.00,-999.00,-999.0,no,no,no,300234062422050,IMB,AWI-USIABP,unknown,South
2016-02-06T22:59:31Z,1454799571,2016,23,0,37.958,37.958,-76.2059,-44.6811,-999.00,-999.00,-999.0,no,no,no,300234062422050,IMB,AWI-USIABP,unknown,South
2016-02-07T04:59:31Z,1454821171,2016,5,0,38.208,38.208,-76.15666,-44.68228,-999.00,-999.00,-999.0,no,no,no,300234062422050,IMB,AWI-USIABP,unknown,South
2016-02-07T10:59:31Z,1454842771,2016,11,0,38.458,38.458,-76.15666,-44.68228,-999.00,-999.00,-999.0,no,no,no,300234062422050,IMB,AWI-USIABP,unknown,South
2016-02-07T16:59:31Z,1454864371,2016,17,0,38.708,38.708,-76.13216,-44.78858,-999.00,-999.00,-999.0,no,no,no,300234062422050,IMB,AWI-USIABP,unknown,South
2016-02-07T22:59:31Z,1454885971,2016,23,0,38.958,38.958,-76.23917,-44.78701,-999.00,-999.00,-999.0,no,no,no,300234062422050,IMB,AWI-USIABP,unknown,South
2016-02-08T04:59:31Z,1454907571,2016,5,0,39.208,39.208,-76.13189,-44.57716,-999.00,-999.00,-999.0,no,no,no,300234062422050,IMB,AWI-USIABP,unknown,South
2016-02-08T10:59:31Z,1454929171,2016,11,0,39.458,39.458,-76.15684,-44.89409,-999.00,-999.00,-999.0,no,no,no,300234062422050,IMB,AWI-USIABP,unknown,South
2016-02-08T16:59:31Z,1454950771,2016,17,0,39.708,39.708,-76.15666,-44.68228,-999.00,-999.00,-999.0,no,no,no,300234062422050,IMB,AWI-USIABP,unknown,South
2016-02-08T22:59:31Z,1454972371,2016,23,0,39.958,39.958,-76.2059,-44.6811,-999.00,-999.00,-999.0,no,no,no,300234062422050,IMB,AWI-USIABP,unknown,South
2016-02-09T04:59:31Z,1454993971,2016,5,0,40.208,40.208,-76.18139,-44.78779,-999.00,-999.00,-999.0,no,no,no,300234062422050,IMB,AWI-USIABP,unknown,South
2016-02-09T10:59:31Z,1455015571,2016,11,0,40.458,40.458,-76.26367,-44.67992,-999.00,-999.00,-999.0,no,no,no,300234062422050,IMB,AWI-USIABP,unknown,South
2016-02-09T16:59:31Z,1455037171,2016,17,0,40.708,40.708,-76.23917,-44.78701,-999.00,-999.00,-999.0,no,no,no,300234062422050,IMB,AWI-USIABP,unknown,South
2016-02-09T22:59:31Z,1455058771,2016,23,0,40.958,40.958,-76.23926,-45.0,-999.00,-999.00,-999.0,no,no,no,300234062422050,IMB,AWI-USIABP,unknown,South
2016-02-10T04:59:31Z,1455080371,2016,5,0,41.208,41.208,-76.23917,-44.78701,-999.00,-999.00,-999.0,no,no,no,300234062422050,IMB,AWI-USIABP,unknown,South
2016-02-10T10:59:31Z,1455101971,2016,11,0,41.458,41.458,-76.2059,-44.6811,-999.00,-999.00,-999.0,no,no,no,300234062422050,IMB,AWI-USIABP,unknown,South
2016-02-10T16:59:31Z,1455123571,2016,17,0,41.708,41.708,-76.21462,-44.8937,-999.00,-999.00,-999.0,no,no,no,300234062422050,IMB,AWI-USIABP,unknown,South
2016-02-10T22:59:31Z,1455145171,2016,23,0,41.958,41.958,-76.26385,-44.8933,-999.00,-999.00,-999.0,no,no,no,300234062422050,IMB,AWI-USIABP,unknown,South
2016-02-11T04:59:31Z,1455166771,2016,5,0,42.208,42.208,-76.18139,-44.78779,-999.00,-999.00,-999.0,no,no,no,300234062422050,IMB,AWI-USIABP,unknown,South
2016-02-11T10:59:31Z,1455188371,2016,11,0,42.458,42.458,-76.18139,-44.78779,-999.00,-999.00,-999.0,no,no,no,300234062422050,IMB,AWI-USIABP,unknown,South
2016-02-11T16:59:31Z,1455209971,2016,17,0,42.708,42.708,-76.18139,-44.78779,-999.00,-999.00,-999.0,no,no,no,300234062422050,IMB,AWI-USIABP,unknown,South
2016-02-11T22:59:31Z,1455231571,2016,23,0,42.958,42.958,-76.2059,-44.6811,-999.00,-999.00,-999.0,no,no,no,300234062422050,IMB,AWI-USIABP,unknown,South
2016-02-12T04:59:31Z,1455253171,2016,5,0,43.208,43.208,-76.15684,-44.89409,-999.00,-999.00,-999.0,no,no,no,300234062422050,IMB,AWI-USIABP,unknown,South
2016-02-12T10:59:31Z,1455274771,2016,11,0,43.458,43.458,-76.21444,-44.6811,-999.00,-999.00,-999.0,no,no,no,300234062422050,IMB,AWI-USIABP,unknown,South
2016-02-12T16:59:31Z,1455296371,2016,17,0,43.708,43.708,-76.18139,-44.78779,-999.00,-999.00,-999.0,no,no,no,300234062422050,IMB,AWI-USIABP,unknown,South
2016-02-12T22:59:31Z,1455317971,2016,23,0,43.958,43.958,-76.39487,-41.44382,-999.00,-999.00,-999.0,no,no,no,300234062422050,IMB,AWI-USIABP,unknown,South
2016-02-13T04:59:31Z,1455339571,2016,5,0,44.208,44.208,-76.13216,-44.78858,-999.00,-999.00,-999.0,no,no,no,300234062422050,IMB,AWI-USIABP,unknown,South
2016-02-13T10:59:31Z,1455361171,2016,11,0,44.458,44.458,-76.25377,-47.23948,-999.00,-999.00,-999.0,no,no,no,300234062422050,IMB,AWI-USIABP,unknown,South
2016-02-13T16:59:31Z,1455382771,2016,17,0,44.708,44.708,-76.10763,-45.10552,-999.00,-999.00,-999.0,no,no,no,300234062422050,IMB,AWI-USIABP,unknown,South
2016-02-13T22:59:31Z,1455404371,2016,23,0,44.958,44.958,-76.10763,-45.10552,-999.00,-999.00,-999.0,no,no,no,300234062422050,IMB,AWI-USIABP,unknown,South
2016-02-14T04:59:31Z,1455425971,2016,5,0,45.208,45.208,-76.02521,-45.0,-999.00,-999.00,-999.0,no,no,no,300234062422050,IMB,AWI-USIABP,unknown,South
2016-02-14T10:59:31Z,1455447571,2016,11,0,45.458,45.458,-76.00059,-45.10475,-999.00,-999.00,-999.0,no,no,no,300234062422050,IMB,AWI-USIABP,unknown,South
2016-02-14T16:59:31Z,1455469171,2016,17,0,45.708,45.708,-75.97593,-45.20911,-999.00,-999.00,-999.0,no,no,no,300234062422050,IMB,AWI-USIABP,unknown,South
2016-02-14T22:59:31Z,1455490771,2016,23,0,45.958,45.958,-76.00059,-45.10475,-999.00,-999.00,-999.0,no,no,no,300234062422050,IMB,AWI-USIABP,unknown,South
2016-02-15T04:59:31Z,1455512371,2016,5,0,46.208,46.208,-75.92676,-45.20835,-999.00,-999.00,-999.0,no,no,no,300234062422050,IMB,AWI-USIABP,unknown,South
2016-02-15T10:59:31Z,1455533971,2016,11,0,46.458,46.458,-76.00059,-44.89525,-999.00,-999.00,-999.0,no,no,no,300234062422050,IMB,AWI-USIABP,unknown,South
2016-02-15T16:59:31Z,1455555571,2016,17,0,46.708,46.708,-75.95141,-44.89564,-999.00,-999.00,-999.0,no,no,no,300234062422050,IMB,AWI-USIABP,unknown,South
2016-02-15T22:59:31Z,1455577171,2016,23,0,46.958,46.958,-75.92676,-45.20835,-999.00,-999.00,-999.0,no,no,no,300234062422050,IMB,AWI-USIABP,unknown,South
2016-02-16T04:59:31Z,1455598771,2016,5,0,47.208,47.208,-75.89351,-44.89602,-999.00,-999.00,-999.0,no,no,no,300234062422050,IMB,AWI-USIABP,unknown,South
2016-02-16T10:59:31Z,1455620371,2016,11,0,47.458,47.458,-75.86895,-45.0,-999.00,-999.00,-999.0,no,no,no,300234062422050,IMB,AWI-USIABP,unknown,South
2016-02-16T16:59:31Z,1455641971,2016,17,0,47.708,47.708,-75.89333,-45.31195,-999.00,-999.00,-999.0,no,no,no,300234062422050,IMB,AWI-USIABP,unknown,South
2016-02-16T22:59:31Z,1455663571,2016,23,0,47.958,47.958,-75.92676,-45.20835,-999.00,-999.00,-999.0,no,no,no,300234062422050,IMB,AWI-USIABP,unknown,South
2016-02-17T04:59:31Z,1455685171,2016,5,0,48.208,48.208,-75.89333,-45.31195,-999.00,-999.00,-999.0,no,no,no,300234062422050,IMB,AWI-USIABP,unknown,South
2016-02-17T10:59:31Z,1455706771,2016,11,0,48.458,48.458,-75.84417,-45.31082,-999.00,-999.00,-999.0,no,no,no,300234062422050,IMB,AWI-USIABP,unknown,South
2016-02-17T16:59:31Z,1455728371,2016,17,0,48.708,48.708,-75.86859,-45.41518,-999.00,-999.00,-999.0,no,no,no,300234062422050,IMB,AWI-USIABP,unknown,South
2016-02-17T22:59:31Z,1455749971,2016,23,0,48.958,48.958,-75.89333,-45.31195,-999.00,-999.00,-999.0,no,no,no,300234062422050,IMB,AWI-USIABP,unknown,South
2016-02-18T04:59:31Z,1455771571,2016,5,0,49.208,49.208,-75.84381,-45.51803,-999.00,-999.00,-999.0,no,no,no,300234062422050,IMB,AWI-USIABP,unknown,South
2016-02-18T10:59:31Z,1455793171,2016,11,0,49.458,49.458,-75.86859,-45.41518,-999.00,-999.00,-999.0,no,no,no,300234062422050,IMB,AWI-USIABP,unknown,South
2016-02-18T16:59:31Z,1455814771,2016,17,0,49.708,49.708,-75.84417,-45.31082,-999.00,-999.00,-999.0,no,no,no,300234062422050,IMB,AWI-USIABP,unknown,South
2016-02-18T22:59:31Z,1455836371,2016,23,0,49.958,49.958,-75.72653,-49.11491,-999.00,-999.00,-999.0,no,no,no,300234062422050,IMB,AWI-USIABP,unknown,South
2016-02-19T04:59:31Z,1455857971,2016,5,0,50.208,50.208,-75.84434,-45.10361,-999.00,-999.00,-999.0,no,no,no,300234062422050,IMB,AWI-USIABP,unknown,South
2016-02-19T10:59:31Z,1455879571,2016,11,0,50.458,50.458,-75.84417,-45.31082,-999.00,-999.00,-999.0,no,no,no,300234062422050,IMB,AWI-USIABP,unknown,South
2016-02-19T16:59:31Z,1455901171,2016,17,0,50.708,50.708,-75.84417,-45.31082,-999.00,-999.00,-999.0,no,no,no,300234062422050,IMB,AWI-USIABP,unknown,South
2016-02-19T22:59:31Z,1455922771,2016,23,0,50.958,50.958,-75.89333,-45.31195,-999.00,-999.00,-999.0,no,no,no,300234062422050,IMB,AWI-USIABP,unknown,South
2016-02-20T04:59:31Z,1455944371,2016,5,0,51.208,51.208,-75.86886,-45.20759,-999.00,-999.00,-999.0,no,no,no,300234062422050,IMB,AWI-USIABP,unknown,South
2016-02-20T10:59:31Z,1455965971,2016,11,0,51.458,51.458,-75.84434,-45.10361,-999.00,-999.00,-999.0,no,no,no,300234062422050,IMB,AWI-USIABP,unknown,South
2016-02-20T16:59:31Z,1455987571,2016,17,0,51.708,51.708,-75.86886,-45.20759,-999.00,-999.00,-999.0,no,no,no,300234062422050,IMB,AWI-USIABP,unknown,South
2016-02-20T22:59:31Z,1456009171,2016,23,0,51.958,51.958,-75.95141,-45.10436,-999.00,-999.00,-999.0,no,no,no,300234062422050,IMB,AWI-USIABP,unknown,South
2016-02-21T04:59:31Z,1456030771,2016,5,0,52.208,52.208,-75.97593,-45.20911,-999.00,-999.00,-999.0,no,no,no,300234062422050,IMB,AWI-USIABP,unknown,South
2016-02-21T10:59:31Z,1456052371,2016,11,0,52.458,52.458,-76.02521,-45.0,-999.00,-999.00,-999.0,no,no,no,300234062422050,IMB,AWI-USIABP,unknown,South
2016-02-21T16:59:31Z,1456073971,2016,17,0,52.708,52.708,-76.04979,-45.10513,-999.00,-999.00,-999.0,no,no,no,300234062422050,IMB,AWI-USIABP,unknown,South
2016-02-21T22:59:31Z,1456095571,2016,23,0,52.958,52.958,-76.10763,-45.10552,-999.00,-999.00,-999.0,no,no,no,300234062422050,IMB,AWI-USIABP,unknown,South
2016-02-22T04:59:31Z,1456117171,2016,5,0,53.208,53.208,-76.10763,-45.10552,-999.00,-999.00,-999.0,no,no,no,300234062422050,IMB,AWI-USIABP,unknown,South
2016-02-22T10:59:31Z,1456138771,2016,11,0,53.458,53.458,-76.08296,-45.21065,-999.00,-999.00,-999.0,no,no,no,300234062422050,IMB,AWI-USIABP,unknown,South
2016-02-22T16:59:31Z,1456160371,2016,17,0,53.708,53.708,-76.10745,-45.31655,-999.00,-999.00,-999.0,no,no,no,300234062422050,IMB,AWI-USIABP,unknown,South
2016-02-22T22:59:31Z,1456181971,2016,23,0,53.958,53.958,-76.18148,-45.0,-999.00,-999.00,-999.0,no,no,no,300234062422050,IMB,AWI-USIABP,unknown,South
2016-02-23T04:59:31Z,1456203571,2016,5,0,54.208,54.208,-76.15684,-45.10591,-999.00,-999.00,-999.0,no,no,no,300234062422050,IMB,AWI-USIABP,unknown,South
2016-02-23T10:59:31Z,1456225171,2016,11,0,54.458,54.458,-76.10763,-45.10552,-999.00,-999.00,-999.0,no,no,no,300234062422050,IMB,AWI-USIABP,unknown,South
2016-02-23T16:59:31Z,1456246771,2016,17,0,54.708,54.708,-76.10763,-45.10552,-999.00,-999.00,-999.0,no,no,no,300234062422050,IMB,AWI-USIABP,unknown,South